When you browse on this site, cookies collect data to enhance your experience and personalize the content and advertising you see.
Visit our Privacy Policy to learn more. By continuing to use the site, you agree to this use of cookies and data.
  • En España
  • Lista de países
  • Para 7 días
  • Temperatura del agua
  • El tiempo en el mapa
  • Informadores
  • user-avatar
    Iniciar sesión

    Tiempo cada hora Safaga

    Hoy, 10 Abril, Viernes

    Tiempo Temperatura Precipitaciones Viento Presión Humedad
    00:00 +17°C° 0 mm 3 mps 704 mmHg 40%
    01:00 +16°C° 0 mm 2 mps 703 mmHg 43%
    02:00 +16°C° 0 mm 2 mps 703 mmHg 46%
    03:00 +15°C° 0 mm 2 mps 703 mmHg 48%
    04:00 +15°C° 0 mm 2 mps 703 mmHg 49%
    05:00 +14°C° 0 mm 2 mps 703 mmHg 51%
    06:00 +14°C° 0 mm 3 mps 704 mmHg 47%
    07:00 +17°C° 0 mm 4 mps 704 mmHg 43%
    08:00 +17°C° 0 mm 5 mps 705 mmHg 38%
    09:00 +19°C° 0 mm 5 mps 705 mmHg 33%
    10:00 +20°C° 0 mm 6 mps 705 mmHg 28%
    11:00 +22°C° 0 mm 7 mps 706 mmHg 24%
    12:00 +22°C° 0 mm 7 mps 705 mmHg 21%
    13:00 +23°C° 0 mm 7 mps 704 mmHg 19%
    14:00 +24°C° 0 mm 7 mps 704 mmHg 19%
    15:00 +23°C° 0 mm 8 mps 704 mmHg 20%
    16:00 +22°C° 0 mm 8 mps 704 mmHg 21%
    17:00 +22°C° 0 mm 8 mps 703 mmHg 22%
    18:00 +20°C° 0 mm 7 mps 704 mmHg 25%
    19:00 +18°C° 0 mm 7 mps 704 mmHg 27%
    20:00 +17°C° 0 mm 6 mps 704 mmHg 29%
    21:00 +16°C° 0 mm 5 mps 704 mmHg 30%
    22:00 +15°C° 0 mm 5 mps 704 mmHg 31%
    23:00 +14°C° 0 mm 4 mps 704 mmHg 32%

    Mañana, 11 Abril, Sábado

    Tiempo Temperatura Precipitaciones Viento Presión Humedad
    00:00 +14°C° 0 mm 4 mps 704 mmHg 34%
    01:00 +13°C° 0 mm 3 mps 704 mmHg 35%
    02:00 +13°C° 0 mm 3 mps 704 mmHg 37%
    03:00 +12°C° 0 mm 3 mps 704 mmHg 39%
    04:00 +12°C° 0 mm 3 mps 704 mmHg 42%
    05:00 +11°C° 0 mm 3 mps 704 mmHg 45%
    06:00 +13°C° 0 mm 3 mps 704 mmHg 42%
    07:00 +14°C° 0 mm 4 mps 705 mmHg 40%
    08:00 +17°C° 0 mm 4 mps 705 mmHg 38%
    09:00 +18°C° 0 mm 4 mps 706 mmHg 33%
    10:00 +20°C° 0 mm 4 mps 706 mmHg 28%
    11:00 +21°C° 0 mm 3 mps 706 mmHg 24%
    12:00 +22°C° 0 mm 4 mps 706 mmHg 22%
    13:00 +23°C° 0 mm 5 mps 705 mmHg 19%
    14:00 +24°C° 0 mm 6 mps 705 mmHg 17%
    15:00 +24°C° 0 mm 6 mps 705 mmHg 18%
    16:00 +23°C° 0 mm 6 mps 705 mmHg 19%
    17:00 +23°C° 0 mm 6 mps 704 mmHg 20%
    18:00 +21°C° 0 mm 5 mps 705 mmHg 24%
    19:00 +19°C° 0 mm 3 mps 705 mmHg 28%
    20:00 +18°C° 0 mm 2 mps 705 mmHg 32%
    21:00 +17°C° 0 mm 2 mps 705 mmHg 34%
    22:00 +16°C° 0 mm 2 mps 705 mmHg 35%
    23:00 +16°C° 0 mm 1 mps 705 mmHg 37%

    Pasado mañana, 12 Abril, Domingo

    Tiempo Temperatura Precipitaciones Viento Presión Humedad
    00:00 +15°C° 0 mm 1 mps 704 mmHg 39%
    01:00 +14°C° 0 mm 1 mps 704 mmHg 41%
    02:00 +14°C° 0 mm 1 mps 704 mmHg 43%
    03:00 +13°C° 0 mm 1 mps 704 mmHg 44%
    04:00 +13°C° 0 mm 1 mps 703 mmHg 46%
    05:00 +12°C° 0 mm 1 mps 703 mmHg 47%
    06:00 +14°C° 0 mm 1 mps 704 mmHg 41%
    07:00 +16°C° 0 mm 1 mps 705 mmHg 36%
    08:00 +18°C° 0 mm 2 mps 706 mmHg 30%
    09:00 +20°C° 0 mm 2 mps 706 mmHg 26%
    10:00 +21°C° 0 mm 2 mps 706 mmHg 21%
    11:00 +24°C° 0 mm 2 mps 706 mmHg 17%
    12:00 +25°C° 0 mm 3 mps 706 mmHg 16%
    13:00 +26°C° 0 mm 3 mps 705 mmHg 14%
    14:00 +27°C° 0 mm 4 mps 705 mmHg 13%
    15:00 +26°C° 0 mm 4 mps 704 mmHg 16%
    16:00 +25°C° 0 mm 4 mps 704 mmHg 19%
    17:00 +25°C° 0 mm 4 mps 704 mmHg 22%
    18:00 +22°C° 0 mm 4 mps 704 mmHg 26%
    19:00 +20°C° 0 mm 3 mps 704 mmHg 30%
    20:00 +19°C° 0 mm 3 mps 704 mmHg 34%
    21:00 +18°C° 0 mm 2 mps 704 mmHg 35%
    22:00 +17°C° 0 mm 2 mps 704 mmHg 36%
    23:00 +16°C° 0 mm 1 mps 704 mmHg 37%

    13 Abril, Lunes

    Tiempo Temperatura Precipitaciones Viento Presión Humedad
    00:00 +16°C° 0 mm 1 mps 703 mmHg 37%
    01:00 +15°C° 0 mm 1 mps 703 mmHg 37%
    02:00 +15°C° 0 mm 1 mps 703 mmHg 38%
    03:00 +14°C° 0 mm 1 mps 703 mmHg 38%
    04:00 +14°C° 0 mm 1 mps 702 mmHg 39%
    05:00 +12°C° 0 mm 0 mps 702 mmHg 39%
    06:00 +16°C° 0 mm 1 mps 703 mmHg 33%
    07:00 +19°C° 0 mm 1 mps 704 mmHg 27%
    08:00 +22°C° 0 mm 1 mps 705 mmHg 21%
    09:00 +23°C° 0 mm 1 mps 705 mmHg 18%
    10:00 +25°C° 0 mm 2 mps 705 mmHg 15%
    11:00 +26°C° 0 mm 2 mps 705 mmHg 12%
    12:00 +27°C° 0 mm 3 mps 705 mmHg 11%
    13:00 +28°C° 0 mm 3 mps 704 mmHg 10%
    14:00 +28°C° 0 mm 4 mps 704 mmHg 9%
    15:00 +28°C° 0 mm 4 mps 703 mmHg 9%
    16:00 +28°C° 0 mm 4 mps 703 mmHg 10%
    17:00 +27°C° 0 mm 4 mps 703 mmHg 10%
    18:00 +25°C° 0 mm 4 mps 703 mmHg 14%
    19:00 +22°C° 0 mm 3 mps 703 mmHg 17%
    20:00 +20°C° 0 mm 2 mps 703 mmHg 20%
    21:00 +19°C° 0 mm 2 mps 703 mmHg 20%
    22:00 +19°C° 0 mm 2 mps 703 mmHg 20%
    23:00 +18°C° 0 mm 2 mps 703 mmHg 20%

    14 Abril, Martes

    Tiempo Temperatura Precipitaciones Viento Presión Humedad
    00:00 +17°C° 0 mm 2 mps 702 mmHg 21%
    01:00 +17°C° 0 mm 2 mps 702 mmHg 21%
    02:00 +16°C° 0 mm 3 mps 701 mmHg 21%
    03:00 +14°C° 0 mm 3 mps 701 mmHg 26%
    04:00 +14°C° 0 mm 3 mps 701 mmHg 30%
    05:00 +13°C° 0 mm 3 mps 701 mmHg 34%
    06:00 +16°C° 0 mm 3 mps 701 mmHg 31%
    07:00 +17°C° 0 mm 3 mps 702 mmHg 27%
    08:00 +19°C° 0 mm 3 mps 702 mmHg 24%
    09:00 +21°C° 0 mm 3 mps 703 mmHg 21%
    10:00 +24°C° 0 mm 2 mps 703 mmHg 17%
    11:00 +26°C° 0 mm 2 mps 703 mmHg 14%
    12:00 +27°C° 0 mm 3 mps 703 mmHg 13%
    13:00 +28°C° 0 mm 3 mps 703 mmHg 12%
    14:00 +29°C° 0 mm 3 mps 703 mmHg 11%
    15:00 +29°C° 0 mm 4 mps 703 mmHg 12%
    16:00 +29°C° 0 mm 6 mps 702 mmHg 14%
    17:00 +28°C° 0 mm 7 mps 702 mmHg 15%
    18:00 +27°C° 0 mm 5 mps 702 mmHg 17%
    19:00 +25°C° 0 mm 4 mps 703 mmHg 20%
    20:00 +22°C° 0 mm 3 mps 703 mmHg 23%
    21:00 +22°C° 0 mm 3 mps 703 mmHg 25%
    22:00 +21°C° 0 mm 3 mps 703 mmHg 26%
    23:00 +21°C° 0 mm 3 mps 703 mmHg 28%

    15 Abril, Miércoles

    Tiempo Temperatura Precipitaciones Viento Presión Humedad
    00:00 +20°C° 0 mm 4 mps 703 mmHg 31%
    01:00 +20°C° 0 mm 5 mps 703 mmHg 33%
    02:00 +20°C° 0 mm 5 mps 703 mmHg 35%
    03:00 +19°C° 0 mm 5 mps 704 mmHg 37%
    04:00 +18°C° 0 mm 4 mps 704 mmHg 38%
    05:00 +18°C° 0 mm 3 mps 704 mmHg 39%
    06:00 +20°C° 0 mm 4 mps 705 mmHg 35%
    07:00 +22°C° 0 mm 5 mps 705 mmHg 31%
    08:00 +24°C° 0 mm 6 mps 706 mmHg 26%
    09:00 +26°C° 0 mm 6 mps 706 mmHg 23%
    10:00 +28°C° 0 mm 5 mps 706 mmHg 20%
    11:00 +29°C° 0 mm 5 mps 707 mmHg 16%
    12:00 +30°C° 0 mm 5 mps 706 mmHg 16%
    13:00 +30°C° 0 mm 5 mps 706 mmHg 15%
    14:00 +32°C° 0 mm 5 mps 706 mmHg 14%
    15:00 +30°C° 0 mm 6 mps 705 mmHg 15%
    16:00 +29°C° 0 mm 6 mps 705 mmHg 17%
    17:00 +28°C° 0 mm 6 mps 705 mmHg 19%
    18:00 +26°C° 0 mm 4 mps 705 mmHg 21%
    19:00 +24°C° 0 mm 3 mps 704 mmHg 24%
    20:00 +23°C° 0 mm 2 mps 704 mmHg 26%
    21:00 +21°C° 0 mm 2 mps 704 mmHg 25%
    22:00 +21°C° 0 mm 2 mps 704 mmHg 24%
    23:00 +21°C° 0 mm 2 mps 704 mmHg 23%
    Mostrar más